This is the latest recevied weather packets stored in our database for station/object SQ5LTL-2. If no packets are shown the sender has not sent any weather packets the latest 10 day(s).
| Time | Temp. | Humidity | Pressure | Rain* | Wind** | Luminosity | Snow |
|---|---|---|---|---|---|---|---|
| 1778047235 | 18.89° C | 44% | 1007.1 hPa | 0 mm | - | 232 W/m² | - |
| 1778046933 | 18.89° C | 45% | 1007.2 hPa | 0 mm | - | 304 W/m² | - |
| 1778046631 | 18.33° C | 45% | 1007.3 hPa | 0 mm | - | 278 W/m² | - |
| 1778046330 | 17.78° C | 46% | 1007.2 hPa | 0 mm | - | 230 W/m² | - |
| 1778046028 | 18.33° C | 46% | 1007.2 hPa | 0 mm | - | 187 W/m² | - |
| 1778045728 | 17.78° C | 46% | 1007.4 hPa | 0 mm | - | 153 W/m² | - |
| 1778045426 | 17.78° C | 48% | 1007.3 hPa | 0 mm | - | 138 W/m² | - |
| 1778045125 | 17.22° C | 48% | 1007.3 hPa | 0 mm | - | 128 W/m² | - |
| 1778044822 | 17.22° C | 49% | 1007.4 hPa | 0 mm | - | 120 W/m² | - |
| 1778044522 | 16.67° C | 49% | 1007.3 hPa | 0 mm | - | 113 W/m² | - |
| 1778044219 | 16.67° C | 50% | 1007.3 hPa | 0 mm | - | 105 W/m² | - |
| 1778043917 | 16.67° C | 50% | 1007.5 hPa | 0 mm | - | 98 W/m² | - |
| 1778043616 | 16.11° C | 50% | 1007.6 hPa | 0 mm | - | 92 W/m² | - |
| 1778043335 | 16.67° C | 50% | 1007.6 hPa | 0 mm | - | 85 W/m² | - |
| 1778043034 | 16.11° C | 51% | 1007.7 hPa | 0 mm | - | 78 W/m² | - |
| 1778042733 | 16.67° C | 52% | 1007.7 hPa | 0 mm | - | 73 W/m² | - |
| 1778042430 | 16.11° C | 52% | 1007.7 hPa | 0 mm | - | 67 W/m² | - |
| 1778042129 | 16.11° C | 52% | 1007.6 hPa | 0 mm | - | 63 W/m² | - |
| 1778041827 | 16.67° C | 51% | 1007.6 hPa | 0 mm | - | 58 W/m² | - |
| 1778041526 | 16.11° C | 53% | 1007.6 hPa | 0 mm | - | 54 W/m² | - |
| 1778041224 | 15.56° C | 55% | 1007.6 hPa | 0 mm | - | 49 W/m² | - |
| 1778040923 | 15° C | 56% | 1007.7 hPa | 0 mm | - | 46 W/m² | - |
| 1778040621 | 14.44° C | 56% | 1007.8 hPa | 0 mm | - | 42 W/m² | - |
| 1778040320 | 13.89° C | 57% | 1007.7 hPa | 0 mm | - | 38 W/m² | - |
| 1778040018 | 13.89° C | 58% | 1007.7 hPa | 0 mm | - | 34 W/m² | - |
* Rain latest hour (hover to see other rain measurements)
** Current wind speed in m/s (hover to see current wind gust speed)